EW8654 Weather Reports


time (UTC)temp
C
wind
direction
speed
KPH
gust
KPH
rain 1hr
cm
rain 24hr
cm
rain mn
cm
humidity
%
barometer
mb
20190223022124 9 166 4.8 6.4 0.00 0.00 0.00 86 1019.8
20190223021122 9 235 1.6 4.8 0.00 0.00 0.00 83 1019.7
20190223020123 10 219 1.6 4.8 0.00 0.00 0.00 83 1019.6
20190223015123 10 236 3.2 6.4 0.00 0.00 0.00 80 1019.6
20190223014123 10 250 4.8 9.7 0.00 0.00 0.00 78 1019.5
20190223013123 11 264 4.8 8.0 0.00 0.00 0.00 75 1019.3
20190223012123 11 260 8.0 9.7 0.00 0.00 0.00 72 1019.3
20190223011123 11 266 6.4 11.3 0.00 0.00 0.00 71 1019.2
20190223010127 11 271 8.0 12.9 0.00 0.00 0.00 69 1019.2
20190223005122 12 261 6.4 11.3 0.00 0.00 0.00 65 1019.2
20190223004123 12 262 8.0 12.9 0.00 0.00 0.00 65 1019.2
20190223003123 13 262 6.4 11.3 0.00 0.00 0.00 63 1019.1
20190223002123 13 270 6.4 12.9 0.00 0.00 0.00 61 1019.2
20190223001123 13 264 4.8 11.3 0.00 0.00 0.00 61 1019.1
20190223000124 14 268 8.0 16.1 0.00 0.00 0.00 61 1018.9
20190222235123 15 270 6.4 14.5 0.00 0.00 0.00 63 1018.9
20190222234124 15 282 4.8 11.3 0.00 0.00 0.00 63 1018.7
20190222233122 15 274 6.4 12.9 0.00 0.00 0.00 63 1018.5
20190222232123 15 270 6.4 11.3 0.00 0.00 0.00 62 1018.4
20190222231122 15 249 8.0 12.9 0.00 0.00 0.00 62 1018.4
20190222230123 15 253 9.7 14.5 0.00 0.00 0.00 61 1018.4
20190222225123 15 262 4.8 9.7 0.00 0.00 0.00 60 1018.4
20190222224122 15 131 4.8 8.0 0.00 0.00 0.00 55 1018.3
20190222223123 15 241 6.4 11.3 0.00 0.00 0.00 55 1018.5
20190222222122 15 294 4.8 8.0 0.00 0.00 0.00 55 1018.4
20190222221124 15 341 4.8 9.7 0.00 0.00 0.00 52 1018.4
20190222220122 15 348 4.8 9.7 0.00 0.00 0.00 54 1018.7
20190222215126 15 243 6.4 11.3 0.00 0.00 0.00 56 1018.7
20190222214123 14 178 4.8 8.0 0.00 0.00 0.00 56 1018.5
20190222213123 15 256 4.8 8.0 0.00 0.00 0.00 56 1018.6
20190222212122 13 221 6.4 9.7 0.00 0.00 0.00 55 1018.7
20190222211123 15 342 4.8 8.0 0.00 0.00 0.00 55 1018.7
20190222210122 13 219 4.8 8.0 0.00 0.00 0.00 57 1018.8
20190222205123 13 298 3.2 8.0 0.00 0.00 0.00 55 1018.8
20190222204122 13 274 4.8 8.0 0.00 0.00 0.00 58 1018.7
20190222203126 13 262 4.8 6.4 0.00 0.00 0.00 58 1018.8
20190222202122 13 266 4.8 9.7 0.00 0.00 0.00 59 1018.9
20190222201123 13 262 6.4 11.3 0.00 0.00 0.00 59 1019.1
20190222200123 13 273 4.8 11.3 0.00 0.00 0.00 60 1019.1
20190222195123 13 261 3.2 9.7 0.00 0.00 0.00 64 1019.1
20190222194122 12 171 4.8 8.0 0.00 0.00 0.00 54 1019.1
20190222193123 12 203 6.4 11.3 0.00 0.00 0.00 53 1019.0
20190222192122 12 161 6.4 11.3 0.00 0.00 0.00 57 1019.0
20190222191125 11 189 4.8 8.0 0.00 0.00 0.00 58 1018.9
20190222190124 11 176 3.2 8.0 0.00 0.00 0.00 60 1019.0
20190222185123 11 176 4.8 9.7 0.00 0.00 0.00 60 1019.0
20190222184123 10 206 4.8 8.0 0.00 0.00 0.00 63 1019.0
20190222183122 10 173 4.8 9.7 0.00 0.00 0.00 64 1018.9
20190222182143 10 178 6.4 11.3 0.00 0.00 0.00 65 1018.9
20190222181123 9 185 4.8 11.3 0.00 0.00 0.00 67 1019.0
20190222180123 8 204 3.2 6.4 0.00 0.00 0.00 68 1019.1
20190222175123 8 140 4.8 8.0 0.00 0.00 0.00 68 1019.1
20190222174124 7 150 3.2 6.4 0.00 0.00 0.00 72 1019.1
20190222173123 7 99 3.2 4.8 0.00 0.00 0.00 77 1019.1
20190222172123 6 203 1.6 4.8 0.00 0.00 0.00 79 1019.2
20190222171123 6 218 3.2 4.8 0.00 0.00 0.00 80 1018.9
20190222170122 5 343 3.2 4.8 0.00 0.00 0.00 83 1018.8
20190222165122 5 153 3.2 4.8 0.00 0.00 0.00 84 1018.8
20190222164122 5 165 3.2 3.2 0.00 0.00 0.00 85 1018.8
20190222163123 4 164 3.2 4.8 0.00 0.00 0.00 86 1018.6
20190222162123 3 157 3.2 4.8 0.00 0.00 0.00 87 1018.3
20190222161123 3 161 1.6 3.2 0.00 0.00 0.00 90 1018.1
20190222160123 2 158 0.0 0.0 0.00 0.00 0.00 90 1018.1
20190222155128 2 90 0.0 0.0 0.00 0.00 0.00 90 1018.1
20190222154126 1 121 0.0 3.2 0.00 0.00 0.00 90 1017.7
20190222153124 0 143 0.0 3.2 0.00 0.00 0.00 90 1017.6
20190222152124 0 158 0.0 0.0 0.00 0.00 0.00 90 1017.4
20190222151125 -1 158 0.0 0.0 0.00 0.00 0.00 90 1017.3
20190222150125 -1 23 0.0 0.0 0.00 0.00 0.00 90 1017.3
20190222145124 -1 315 0.0 0.0 0.00 0.00 0.00 90 1017.3
20190222144125 -2 284 0.0 3.2 0.00 0.00 0.00 90 1017.1
20190222143125 -1 248 0.0 0.0 0.00 0.00 0.00 90 1016.8
20190222142125 -1 83 0.0 3.2 0.00 0.00 0.00 90 1016.7
20190222141124 -1 135 0.0 1.6 0.00 0.00 0.00 90 1016.8
20190222140125 -1 150 0.0 1.6 0.00 0.00 0.00 90 1016.7
20190222135125 0 248 0.0 0.0 0.00 0.00 0.00 90 1016.7
20190222134124 0 0 0.0 3.2 0.00 0.00 0.00 90 1016.5
20190222133124 0 270 0.0 0.0 0.00 0.00 0.00 90 1016.3
20190222132124 0 327 0.0 3.2 0.00 0.00 0.00 90 1016.3
20190222131124 0 338 0.0 0.0 0.00 0.00 0.00 90 1016.1
20190222130125 0 270 0.0 0.0 0.00 0.00 0.00 89 1016.0
20190222125125 0 246 1.6 4.8 0.00 0.00 0.00 90 1016.0
20190222124124 0 158 0.0 4.8 0.00 0.00 0.00 88 1015.9
20190222123124 0 55 0.0 3.2 0.00 0.00 0.00 85 1015.7
20190222122124 0 18 0.0 1.6 0.00 0.00 0.00 82 1015.6
20190222121125 1 313 0.0 3.2 0.00 0.00 0.00 81 1015.8
20190222120124 1 270 0.0 3.2 0.00 0.00 0.00 79 1015.7
20190222115124 1 37 0.0 3.2 0.00 0.00 0.00 77 1015.7
20190222114124 2 245 0.0 4.8 0.00 0.00 0.00 73 1015.6
20190222113125 2 224 0.0 3.2 0.00 0.00 0.00 70 1015.5
20190222112124 2 260 1.6 4.8 0.00 0.00 0.00 68 1015.4
20190222111124 3 340 1.6 3.2 0.00 0.00 0.00 66 1015.3
20190222110125 3 313 0.0 3.2 0.00 0.00 0.00 63 1015.2
20190222105125 4 244 0.0 3.2 0.00 0.00 0.00 60 1015.2
20190222104125 5 251 3.2 4.8 0.00 0.00 0.00 58 1015.2
20190222103124 5 13 4.8 8.0 0.00 0.00 0.00 56 1014.9
20190222102124 5 360 6.4 8.0 0.00 0.00 0.00 56 1014.9
20190222101125 5 17 6.4 9.7 0.00 0.00 0.00 55 1014.8
20190222100125 6 1 4.8 8.0 0.00 0.00 0.00 55 1014.7
20190222095124 6 32 4.8 8.0 0.00 0.00 0.00 54 1014.7
20190222094124 6 14 6.4 8.0 0.00 0.00 0.00 54 1014.6
20190222093124 6 10 8.0 14.5 0.00 0.00 0.00 54 1014.5
20190222092124 6 10 6.4 11.3 0.00 0.00 0.00 54 1014.5
20190222091125 6 339 4.8 8.0 0.00 0.00 0.00 55 1014.3
20190222090124 6 345 4.8 9.7 0.00 0.00 0.00 54 1014.3
20190222085124 7 33 4.8 6.4 0.00 0.00 0.00 53 1014.3
20190222084125 7 51 8.0 14.5 0.00 0.00 0.00 52 1014.1
20190222083124 7 43 9.7 14.5 0.00 0.00 0.00 51 1014.2
20190222082125 7 45 11.3 17.7 0.00 0.00 0.00 51 1013.9
20190222081125 7 66 14.5 17.7 0.00 0.00 0.00 51 1014.0
20190222080125 7 56 6.4 11.3 0.00 0.00 0.00 53 1014.2
20190222075124 6 2 4.8 8.0 0.00 0.00 0.00 54 1014.2
20190222074125 6 359 3.2 11.3 0.00 0.00 0.00 55 1014.1
20190222073125 6 12 3.2 8.0 0.00 0.00 0.00 56 1013.9
20190222072124 6 275 1.6 4.8 0.00 0.00 0.00 58 1014.0
20190222071124 6 337 3.2 8.0 0.00 0.00 0.00 57 1013.7
20190222070124 6 333 3.2 9.7 0.00 0.00 0.00 57 1013.5
20190222065125 6 263 3.2 8.0 0.00 0.00 0.00 59 1013.5
20190222064125 6 275 1.6 3.2 0.00 0.00 0.00 58 1013.4
20190222063126 7 303 3.2 9.7 0.00 0.00 0.00 57 1013.2
20190222062125 7 295 3.2 6.4 0.00 0.00 0.00 57 1013.2
20190222061124 7 294 1.6 4.8 0.00 0.00 0.00 57 1012.8
20190222060124 7 334 1.6 6.4 0.00 0.00 0.00 55 1012.6
20190222055124 8 18 6.4 12.9 0.00 0.00 0.00 53 1012.6
20190222054127 8 338 3.2 8.0 0.00 0.00 0.00 55 1012.4
20190222053124 8 4 3.2 9.7 0.00 0.00 0.00 53 1012.3
20190222052124 9 17 8.0 22.5 0.00 0.00 0.00 52 1012.1
20190222051124 9 21 11.3 20.9 0.00 0.00 0.00 52 1011.8
20190222050124 10 25 11.3 17.7 0.00 0.00 0.00 50 1011.5
20190222045127 10 41 14.5 27.4 0.00 0.00 0.00 50 1011.5
20190222044124 10 54 12.9 16.1 0.00 0.00 0.00 50 1011.4
20190222043124 10 51 9.7 14.5 0.00 0.00 0.00 49 1011.1
20190222042124 10 60 9.7 19.3 0.00 0.00 0.00 49 1011.1
20190222041125 10 54 11.3 17.7 0.00 0.00 0.00 49 1011.0
20190222040124 9 54 8.0 12.9 0.00 0.00 0.00 50 1010.7
20190222035124 9 65 4.8 9.7 0.00 0.00 0.00 51 1010.7
20190222034125 9 65 4.8 9.7 0.00 0.00 0.00 50 1010.6
20190222033124 10 44 4.8 11.3 0.00 0.00 0.00 50 1010.5
20190222032125 10 36 8.0 12.9 0.00 0.00 0.00 50 1010.5
20190222031124 10 47 6.4 11.3 0.00 0.00 0.00 50 1010.0
20190222030124 10 33 8.0 12.9 0.00 0.00 0.00 50 1009.9
20190222025124 10 45 6.4 11.3 0.00 0.00 0.00 50 1009.9
20190222024124 11 28 6.4 11.3 0.00 0.00 0.00 49 1009.5
20190222023124 11 45 9.7 16.1 0.00 0.00 0.00 48 1009.4